FW1417 Weather Reports


Display with metric or nautical units.
time (UTC)temp
F
wind
direction
speed
MPH
gust
MPH
rain 1hr
in
rain 24hr
in
rain mn
in
humidity
%
barometer
mb
20260502170205 59 269 3.0 13.0 0.00 0.01 0.01 46 1008.3
20260502164205 59 304 2.0 9.0 0.00 0.01 0.01 50 1008.7
20260502163707 58 322 3.0 12.0 0.00 0.01 0.01 51 1008.7
20260502163205 58 293 4.0 12.0 0.00 0.01 0.01 50 1008.7
20260502162705 57 296 5.0 13.0 0.00 0.01 0.01 52 1008.8
20260502162205 57 250 3.0 13.0 0.00 0.01 0.01 53 1008.7
20260502161706 57 240 3.0 13.0 0.00 0.01 0.01 53 1008.6
20260502160205 57 347 3.0 8.0 0.00 0.01 0.01 55 1008.7
20260502152206 55 224 3.0 10.0 0.00 0.01 0.01 64 1008.9
20260502151815 54 273 4.0 10.0 0.00 0.01 0.01 65 1008.9
20260502150206 55 252 4.0 10.0 0.00 0.01 0.01 66 1009.0
20260502130705 54 274 2.0 6.0 0.00 0.01 0.01 71 1009.2
20260502130205 54 257 1.0 6.0 0.00 0.01 0.01 71 1009.2
20260502123705 53 246 1.0 7.0 0.00 0.01 0.01 73 1009.1
20260502122705 53 286 1.0 3.0 0.00 0.01 0.01 74 1009.0
20260502122205 53 319 1.0 3.0 0.00 0.01 0.01 74 1009.0
20260502121705 53 288 1.0 3.0 0.00 0.01 0.01 75 1008.9
20260502121205 53 275 0.0 2.0 0.00 0.01 0.01 75 1008.9
20260502120205 53 275 1.0 3.0 0.00 0.01 0.01 75 1009.0
20260502115705 53 275 2.0 3.0 0.00 0.01 0.01 75 1008.8
20260502114704 52 340 0.0 2.0 0.00 0.01 0.01 76 1008.8
20260502114206 52 340 1.0 2.0 0.00 0.01 0.01 76 1008.8
20260502113706 52 340 0.0 1.0 0.00 0.01 0.01 77 1008.8
20260502113205 52 340 0.0 1.0 0.00 0.01 0.01 77 1008.7
20260502112705 52 340 0.0 2.0 0.00 0.01 0.01 77 1008.8
20260502112205 52 340 0.0 2.0 0.00 0.01 0.01 77 1008.8
20260502111205 52 340 0.0 2.0 0.00 0.01 0.01 77 1008.8
20260502110705 52 340 0.0 2.0 0.00 0.01 0.01 77 1008.8
20260502110205 52 340 0.0 2.0 0.00 0.01 0.01 77 1008.7
20260502105705 52 340 1.0 3.0 0.00 0.01 0.01 77 1008.7
20260502105205 52 348 1.0 3.0 0.00 0.01 0.01 77 1008.4
20260502104704 52 346 1.0 3.0 0.00 0.01 0.01 77 1008.3
20260502103706 52 348 1.0 3.0 0.01 0.01 0.01 77 1008.1
20260502103205 52 0 1.0 3.0 0.01 0.01 0.01 76 1008.1
20260502102705 52 336 0.0 3.0 0.01 0.01 0.01 76 1008.1
20260502102205 52 350 1.0 3.0 0.01 0.01 0.01 76 1008.1
20260502101204 52 30 1.0 3.0 0.01 0.01 0.01 75 1007.9
20260502100704 52 37 1.0 3.0 0.01 0.01 0.01 74 1008.1
20260502100204 52 337 1.0 5.0 0.01 0.01 0.01 74 1008.0
20260502091204 53 261 2.0 7.0 0.00 0.00 0.00 72 1008.4
20260502090705 53 198 2.0 7.0 0.00 0.00 0.00 72 1008.4
20260502090205 53 205 2.0 5.0 0.00 0.00 0.00 72 1008.4
20260502071205 55 184 3.0 6.0 0.00 0.00 0.00 65 1007.9
20260502065704 55 146 2.0 7.0 0.00 0.00 0.00 64 1008.0
20260502065206 55 142 0.0 6.0 0.00 0.00 0.00 64 1008.0
20260502064205 55 146 2.0 9.0 0.00 0.00 0.00 63 1008.3
20260502062705 55 188 3.0 8.0 0.00 0.00 0.00 62 1008.4
20260502061704 55 182 2.0 6.0 0.00 0.00 0.00 62 1008.4
20260502061204 55 190 1.0 5.0 0.00 0.00 0.00 62 1008.6
20260502060704 55 175 2.0 6.0 0.00 0.00 0.00 62 1008.5
20260502055704 55 173 3.0 7.0 0.00 0.00 0.00 61 1008.5
20260502055204 56 158 1.0 5.0 0.00 0.00 0.00 61 1008.4
20260502054704 56 178 1.0 5.0 0.00 0.00 0.00 60 1008.4
20260502054204 56 159 2.0 5.0 0.00 0.00 0.00 60 1008.5
20260502053205 56 157 2.0 6.0 0.00 0.00 0.00 60 1008.5
20260502052704 56 136 2.0 6.0 0.00 0.00 0.00 60 1008.4
20260502052205 56 160 3.0 5.0 0.00 0.00 0.00 60 1008.6
20260502051705 56 151 2.0 5.0 0.00 0.00 0.00 60 1008.6
20260502051204 56 217 2.0 5.0 0.00 0.00 0.00 59 1008.5
20260502050704 56 177 2.0 6.0 0.00 0.00 0.00 59 1008.5
20260502050204 56 200 2.0 6.0 0.00 0.00 0.00 59 1008.4
20260502045706 56 168 2.0 6.0 0.00 0.00 0.00 59 1008.5
20260502044706 56 167 3.0 6.0 0.00 0.00 0.00 58 1008.3
20260502044207 56 185 2.0 6.0 0.00 0.00 0.00 58 1008.2
20260502041706 56 201 4.0 10.0 0.00 0.00 0.00 59 1008.7
20260502040206 56 205 2.0 6.0 0.00 0.00 0.00 62 1008.6
20260502035706 56 176 3.0 6.0 0.00 0.00 0.00 63 1008.6
20260502034706 56 179 2.0 6.0 0.00 0.00 0.00 67 1008.4
20260502034206 56 194 2.0 8.0 0.00 0.00 0.00 68 1008.3
20260502033706 56 192 2.0 8.0 0.00 0.00 0.00 69 1008.3
20260502033207 56 134 4.0 8.0 0.00 0.00 0.00 70 1008.2
20260502032706 56 126 2.0 6.0 0.00 0.00 0.00 71 1008.4
20260502031206 55 120 2.0 8.0 0.00 0.00 0.00 71 1008.2
20260502030206 56 139 4.0 8.0 0.00 0.00 0.00 70 1008.5
20260502025706 56 138 3.0 8.0 0.00 0.00 0.00 70 1008.6
20260502025207 56 152 3.0 8.0 0.00 0.00 0.00 70 1008.7
20260502024206 56 182 5.0 12.0 0.00 0.00 0.00 70 1008.7
20260502023707 56 146 3.0 9.0 0.00 0.00 0.00 70 1008.6
20260502022706 55 150 4.0 8.0 0.00 0.00 0.00 70 1008.7
20260502022206 55 132 3.0 9.0 0.00 0.00 0.00 70 1008.6
20260502021706 55 140 5.0 9.0 0.00 0.00 0.00 70 1008.6
20260502021207 55 128 3.0 8.0 0.00 0.00 0.00 70 1008.6
20260502020707 55 104 3.0 9.0 0.00 0.00 0.00 70 1008.5
20260502020207 55 143 4.0 9.0 0.00 0.00 0.00 70 1008.6
20260502015707 55 144 4.0 9.0 0.00 0.00 0.00 69 1008.5
20260502015206 55 141 1.0 8.0 0.00 0.00 0.00 69 1008.5
20260502014206 55 130 3.0 7.0 0.00 0.00 0.00 69 1008.5
20260502013707 55 113 2.0 7.0 0.00 0.00 0.00 69 1008.5
20260502013206 55 142 2.0 7.0 0.00 0.00 0.00 68 1008.4
20260502012706 55 101 1.0 6.0 0.00 0.00 0.00 68 1008.4
20260502012206 56 156 3.0 6.0 0.00 0.00 0.00 68 1008.3
20260502011706 56 150 3.0 6.0 0.00 0.00 0.00 68 1008.2
20260502011206 56 137 3.0 5.0 0.00 0.00 0.00 67 1008.3
20260502010206 56 146 3.0 8.0 0.00 0.00 0.00 67 1008.1
20260502005706 56 148 3.0 8.0 0.00 0.00 0.00 67 1007.9
20260502004706 56 173 2.0 7.0 0.00 0.00 0.00 66 1008.0
20260502004205 56 171 2.0 7.0 0.00 0.00 0.00 65 1007.9
20260502003706 56 144 3.0 7.0 0.00 0.00 0.00 65 1007.9
20260502003206 56 174 2.0 9.0 0.00 0.00 0.00 65 1007.8
20260502002706 57 159 3.0 9.0 0.00 0.00 0.00 65 1007.8
20260502002206 57 166 5.0 9.0 0.00 0.00 0.00 64 1007.8
20260502001706 57 149 4.0 7.0 0.00 0.00 0.00 64 1007.7
20260502001206 57 115 2.0 8.0 0.00 0.00 0.00 63 1007.7
20260502000706 57 176 3.0 9.0 0.00 0.00 0.00 63 1007.6
20260502000206 57 169 2.0 9.0 0.00 0.00 0.00 62 1007.5
20260501235206 58 144 3.0 7.0 0.00 0.00 0.00 62 1007.5
20260501234706 58 154 2.0 9.0 0.00 0.00 0.00 61 1007.4
20260501234206 58 147 4.0 9.0 0.00 0.00 0.00 60 1007.3
20260501233706 58 132 3.0 6.0 0.00 0.00 0.00 60 1007.3
20260501233206 58 171 2.0 7.0 0.00 0.00 0.00 59 1007.2
20260501232706 58 142 2.0 7.0 0.00 0.00 0.00 58 1007.3
20260501232206 58 232 3.0 8.0 0.00 0.00 0.00 58 1007.2
20260501231705 58 146 4.0 9.0 0.00 0.00 0.00 57 1007.2
20260501230706 59 149 3.0 8.0 0.00 0.00 0.00 56 1007.1
20260501225706 59 130 3.0 9.0 0.00 0.00 0.00 55 1007.1
20260501225206 59 145 3.0 10.0 0.00 0.00 0.00 54 1007.0
20260501224706 59 146 5.0 10.0 0.00 0.00 0.00 54 1007.0
20260501224206 59 194 4.0 8.0 0.00 0.00 0.00 54 1007.0
20260501223706 59 169 3.0 8.0 0.00 0.00 0.00 54 1007.1
20260501223206 59 121 4.0 10.0 0.00 0.00 0.00 55 1007.1
20260501222706 59 88 6.0 12.0 0.00 0.00 0.00 54 1007.1
20260501222206 59 157 5.0 12.0 0.00 0.00 0.00 53 1007.1
20260501221706 59 144 5.0 12.0 0.00 0.00 0.00 53 1007.1
20260501220706 59 126 6.0 13.0 0.00 0.00 0.00 53 1007.2
20260501220206 59 128 4.0 13.0 0.00 0.00 0.00 52 1007.2
20260501215706 60 163 5.0 14.0 0.00 0.00 0.00 51 1007.3
20260501215206 60 175 6.0 14.0 0.00 0.00 0.00 51 1007.3
20260501214706 60 157 5.0 12.0 0.00 0.00 0.00 51 1007.3
20260501214205 60 138 5.0 14.0 0.00 0.00 0.00 51 1007.2
20260501213705 60 144 6.0 14.0 0.00 0.00 0.00 50 1007.3
20260501213206 61 138 6.0 12.0 0.00 0.00 0.00 50 1007.1
20260501212206 61 155 7.0 14.0 0.00 0.00 0.00 49 1007.2
20260501211705 61 184 7.0 14.0 0.00 0.00 0.00 49 1007.2
20260501211206 61 149 6.0 13.0 0.00 0.00 0.00 48 1007.0
20260501210206 61 188 5.0 14.0 0.00 0.00 0.00 47 1006.9
20260501205707 62 159 7.0 14.0 0.00 0.00 0.00 47 1006.9
20260501205206 62 144 5.0 13.0 0.00 0.00 0.00 46 1007.0
20260501204706 62 185 5.0 13.0 0.00 0.00 0.00 46 1007.0
20260501204205 62 128 6.0 15.0 0.00 0.00 0.00 45 1007.0
20260501203706 62 172 6.0 16.0 0.00 0.00 0.00 44 1007.0
20260501202707 62 152 7.0 16.0 0.00 0.00 0.00 43 1007.0
20260501202205 63 223 5.0 14.0 0.00 0.00 0.00 43 1006.9
20260501201205 63 179 6.0 14.0 0.00 0.00 0.00 41 1006.9
20260501200707 64 144 7.0 14.0 0.00 0.00 0.00 40 1007.0
20260501200206 65 149 7.0 14.0 0.00 0.00 0.00 40 1006.9
20260501195706 65 163 8.0 14.0 0.00 0.00 0.00 40 1006.9
20260501195206 65 213 6.0 13.0 0.00 0.00 0.00 36 1006.7
20260501194706 64 225 3.0 12.0 0.00 0.00 0.00 39 1006.8
20260501194206 64 158 5.0 13.0 0.00 0.00 0.00 39 1006.7
20260501193707 64 105 9.0 13.0 0.00 0.00 0.00 39 1006.8
20260501193206 64 104 6.0 13.0 0.00 0.00 0.00 40 1006.9
20260501192206 64 129 6.0 10.0 0.00 0.00 0.00 38 1007.1
20260501191705 64 143 6.0 10.0 0.00 0.00 0.00 38 1007.1
20260501191206 64 165 6.0 10.0 0.00 0.00 0.00 37 1007.3
20260501190705 64 155 5.0 10.0 0.00 0.00 0.00 38 1007.2
20260501190205 64 154 6.0 10.0 0.00 0.00 0.00 37 1007.4
20260501185706 63 146 5.0 10.0 0.00 0.00 0.00 38 1007.5
20260501185205 63 139 5.0 13.0 0.00 0.00 0.00 38 1007.6
20260501183705 63 159 6.0 12.0 0.00 0.00 0.00 38 1008.0
20260501183206 63 159 5.0 12.0 0.00 0.00 0.00 39 1008.1
20260501182706 63 124 5.0 12.0 0.00 0.00 0.00 39 1008.1
20260501182205 63 131 3.0 13.0 0.00 0.00 0.00 38 1008.2
20260501181206 63 146 7.0 12.0 0.00 0.00 0.00 38 1008.2
20260501180706 64 135 5.0 10.0 0.00 0.00 0.00 37 1008.1
20260501175705 64 226 5.0 10.0 0.00 0.00 0.00 36 1008.2
20260501175206 65 152 4.0 9.0 0.00 0.00 0.00 36 1008.2
20260501174706 64 205 3.0 10.0 0.00 0.00 0.00 34 1008.2
20260501174206 64 273 5.0 10.0 0.00 0.00 0.00 35 1008.2
20260501173705 64 227 2.0 8.0 0.00 0.00 0.00 36 1008.1
20260501173207 64 154 3.0 8.0 0.00 0.00 0.00 35 1008.2
20260501172705 64 202 2.0 9.0 0.00 0.00 0.00 33 1008.3
20260501172205 63 252 3.0 9.0 0.00 0.00 0.00 32 1008.4
20260501171705 64 275 6.0 9.0 0.00 0.00 0.00 31 1008.5
20260501171205 63 277 1.0 9.0 0.00 0.00 0.00 33 1008.5